Weather in Xining

China     36°38′21″N   101°44′33″E
В апреле 2022 года жителям России запретили посещать сайт meteo.paraplan.net по решению Генеральной прокуратуры. Аудитория сайта уменьшилась в 10 раз. Владельцы сайта не видят смысла в поддержке погодного сервера в таких условиях. Сайт будет закрыт в октябре.
temp.,
°C
wind,
m/s
gust,
m/s
humid.,
%
clouds,
%
prec.,
mm/h
press.,
hPa
HPBL,
m
4 october, tue
tue423:00+7sse234398 0.0 1025670
02:00+6ssw1245100 0.0 1025120
05:00+3sw1147100 0.0 102512
08:00+4w004818 0.0 102574
11:00+8s1141100 0.0 1022613
14:00+11sse1138100 0.0 1016652
17:00+14se223620 0.0 1012809
20:00+10sse2243100 0.0 101525
5 october, wed
wed523:00+9wsw114899 0.0 101617
02:00+8ssw1154100 0.0 101687
05:00+8s1159100 0.0 1015202
08:00+7nnw3372100 0.3 1018737
11:00+6nw1184100 1.6 1020376
14:00+6ne1183100 2.0 1019795
17:00+7e1180100 0.0 1018617
20:00+7se228296 0.0 1020420
6 october, thu
thu623:00+5ese2390100 0.3 1024337
02:00+4sse2287100 0.3 1024462
05:00+4sse1186100 0.0 1024305
08:00+4sse2285100 0.1 1025340
11:00+5se1375100 0.1 1025591
14:00+8se335999 0.1 1021971
17:00+9se345599 0.0 10191035
20:00+7se255596 0.0 1021544
7 october, fri
fri723:00+6sw115876 0.0 102283
02:00+4ssw11678 0.0 102212
05:00+3nnw117293 0.0 102212
08:00+3nnw0172100 0.0 102356
11:00+7sse115685 0.0 1022722
14:00+11se224460 0.0 10171311
17:00+12se654213 0.0 10151442
20:00+8se61050100 0.0 1019582
8 october, sat
sat823:00+8se6945100 0.0 1021904
02:00+7ese464898 0.0 1022828
05:00+6sse3548100 0.0 1022672
08:00+5sse2448100 0.0 1024726
11:00+7ese224689 0.0 10251324
14:00+9ese224294 0.1 10211749
17:00+4n777853 1.1 1025430
20:00+5ne346588 1.2 1028592